User: anonymous   Login
Location: Chillicothe
(39.7950°N, 93.5520°W)
Time: 06:15:38
(UTC-05:00)
Language:

Altair - Orbit

View from above orbital plane
View from above orbital plane
View from above satellite
View from above satellite

Ground track
Ground track

The orbit data is extracted from the following two-line orbital elements,

1    50U 60009B   19287.77484876 -.00000092 +00000-0 -66723-4 0  9999
2    50 047.2306 166.8757 0113825 310.7213 048.3735 12.20109231640108
Epoch (UTC): 14 October 2019 18:35:46
Eccentricity: 0.0113825
inclination: 47.2306°
perigee height: 1501 km
apogee height: 1683 km
right ascension of ascending node: 166.8757°
argument of perigee: 310.7213°
revolutions per day: 12.20109231
mean anomaly at epoch: 48.3735°
orbit number at epoch: 64010

The dashed part of the orbit path shows where the satellite is in the earth's shadow,  

DLR